1st Responders/1st Detectors/Storm Spotters Weather Summary for Hopkins County, KY

Forecast Maps


Reg. NEXRAD Animation


National Fire Danger: Day 1 & 2 Map

Current NWS Watch/Warnings

SPC Convective Day 1 Outlook


Day 2 Outlook

(Click images to enlarge|Page will refresh every 5 minutes)
UK Ag. Weather Center Desktop Severe Weather Service[HERE]
Hopkins County, KY Hazardous Weather Outlook Webcast
(9 AM to 9 PM Mon-Fri)
[Fast]
[Dial-up]


UKAWC 1st Detectors/1st Responders Precision Weather Forecast For HOPKINS County, Kentucky
(based on the NWS County Digital Forecast)

ISSUED AT 07:00 UTC ON MONDAY OCT 18 2021
DAY MONDAY
CDT 3HR 3A 4A 5A 6A 7A 8A 9A 10A 11A NOON 1P 2P 3P 4P 5P 6P
MAX/MIN -- -- -- -- 40° -- -- -- -- -- -- -- -- -- -- 74°
TEMP 45° 43° 43° 41° 41° 45° 54° 61° 67° 70° 72° 72° 74° 72° 70° 68°
SKY COVER 0% 0% 0% 0% 4% 1% 1% 1% 1% 1% 3% 3% 3% 2% 4% 2%
Clouds
DEW PT 41° 40° 40° 40° 40° 43° 45° 43° 40° 38° 38° 38° 36° 36° 40° 41°
RH 89% 89% 92% 96% 95% 88% 71% 49% 38% 31% 28% 28% 26% 27% 33% 37%
POP 12HR -- -- -- -- 0% -- -- -- -- -- -- -- -- -- -- --
RAIN/SNOW (liq.equ) -- -- -- -- 0.00in -- -- -- -- -- 0.00in -- -- -- -- --
SNOWFALL -- -- -- -- 0in -- -- -- -- -- 0in -- -- -- -- --
WIND SPEED(MPH) 1 2 1 1 1 1 2 5 6 6 6 6 6 6 5 5
WIND Gust(MPH) 1 2 1 1 1 1 2 5 6 7 7 7 7 7 5 5
WIND DIR SW SW SW SW SW SW SW SW SW SW SW SW SW SW SW S
DEW Mod Dew Mod Dew Mod Dew Mod Dew Mod Dew Mod Dew Lgt Dew -- -- -- -- -- -- -- -- --
HeatIndex 45 42 43 41 41 45 54 61 67 70 72 72 74 72 70 68
Rain Showers -- -- -- -- -- -- -- -- -- -- -- -- -- -- -- --
Fog -- -- -- Patchy Patchy -- -- -- -- -- -- -- -- -- -- --
WIND CHILL -- -- -- -- -- -- -- -- -- -- -- -- -- -- -- --
SPRAY COND
DRY COND
LIVESTOCK COLDSTRESS
LIVESTOCK HEATSTRESS 45.83 43.96 43.70 41.39 41.49 45.91 54.77 60.38 64.20 65.75 66.77 66.77 67.81 66.70 65.87 64.81



DAY TUESDAY WEDNESDAY THURSDAY FRIDAY SATURDAY SUNDAY
CDT 6HR 7P 8P 9P 10P 11P MIDN 1A 2A 3A 4A 5A 6A 7A 8A 9A 10A 11A NOON 1P 2P 4P 7P 10P 1A 4A 7A 10A 1P 4P 7P 1A 7A 1P 7P 1A 7A 1P 7P 1A 7A 1P 7P 1A 7A 1P 7P
MAX/MIN -- -- -- -- -- -- -- -- -- -- -- -- 43° -- -- -- -- -- -- -- 74° -- -- -- -- 47° -- -- 76° -- -- 58° 72° -- -- 49° 65° -- -- 41° 65° -- -- 45° 70° --
TEMP 65° 63° 54° 54° 52° 50° 49° 49° 47° 47° 47° 45° 45° 49° 56° 63° 67° 70° 72° 74° 72° 61° 54° 52° 49° 49° 63° 74° 74° 65° 61° 59° 70° 61° 52° 50° 63° 56° 47° 43° 63° 56° 49° 49° 67° 61°
SKY COVER 2% 0% 0% 0% 0% 0% 0% 0% 1% 1% 4% 6% 6% 7% 8% 9% 14% 26% 31% 30% 28% 26% 13% 4% 3% 7% 4% 6% 12% 11% 42% 59% 19% 15% 24% 51% 53% 26% 13% 21% 23% 17% 20% 40% 33% 32%
Clouds
DEW PT 43° 45° 45° 45° 45° 45° 45° 45° 43° 43° 43° 43° 43° 45° 47° 47° 47° 47° 47° 47° 45° 47° 49° 49° 47° 47° 52° 52° 54° 56° 58° 58° 54° 49° 49° 49° 49° 47° 43° 41° 45° 45° 45° 45° 49° 50°
RH 44% 51% 68% 71% 77% 79% 82% 86% 86% 89% 89% 92% 92% 82% 68% 58% 48% 44% 39% 37% 38% 62% 79% 89% 92% 96% 64% 47% 48% 72% 86% 96% 56% 66% 89% 92% 57% 68% 86% 93% 50% 66% 85% 85% 52% 70%
POP 12HR 0% -- -- -- -- -- -- -- -- -- -- -- 0% -- -- -- -- -- -- -- -- 0% -- -- -- 0% -- -- -- 6% -- 39% -- 11% -- 2% -- 9% -- 4% -- 4% -- 8% -- 16%
RAIN/SNOW (liq.equ) 0.00in -- -- -- -- -- 0.00in -- -- -- -- -- 0.00in -- -- -- -- -- 0.00in -- -- 0.00in -- 0.00in -- 0.00in -- 0.00in -- 0.00in -- -- -- -- -- -- -- -- -- -- -- -- -- -- -- --
SNOWFALL 0in -- -- -- -- -- 0in -- -- -- -- -- 0in -- -- -- -- -- 0in -- -- 0in -- 0in -- 0in -- 0in -- 0in -- -- -- -- -- -- -- -- -- -- -- -- -- -- -- --
WIND SPEED(MPH) 2 1 1 2 2 2 2 0 0 0 0 0 0 1 1 2 5 5 6 6 6 1 1 1 1 1 6 7 8 6 7 6 8 5 1 1 6 1 0 0 2 1 1 2 8 6
WIND DIR S S S S S S S S S S S S S S S S S S S S S S S S S S S S S S S SW W NW NW NW NW N N N NW NE SE SE S S
HeatIndex 65 63 54 54 52 50 49 49 47 47 47 45 45 49 56 63 67 70 72 74 72 61 54 52 49 49 63 74 74 65 61 59 70 61 52 50 63 56 47 43 63 56 49 49 67 61
Rain Showers -- -- -- -- -- -- -- -- -- -- -- -- -- -- -- -- -- -- -- -- -- -- -- -- -- -- -- -- -- Chance Chance -- -- -- -- -- -- -- -- -- -- -- -- -- Slight Chance Slight Chance
Fog -- -- -- -- -- -- -- -- -- -- -- -- -- -- -- -- -- -- -- -- -- -- -- -- -- -- -- -- -- -- -- -- -- -- -- -- -- -- -- -- -- -- -- -- -- --
WIND CHILL -- -- -- -- -- -- -- -- -- -- -- -- -- -- -- -- -- -- -- -- -- -- -- -- -- -- -- -- -- -- -- -- -- -- -- -- -- -- -- -- -- -- -- -- -- --
SPRAY COND
DRY COND
LIVESTOCK COLDSTRESS
LIVESTOCK HEATSTRESS 63.09 61.87 54.84 54.77 52.86 51.02 49.97 49.75 47.91 47.71 47.71 45.61 45.61 49.97 56.49 62.03 64.65 66.55 67.57 68.73 67.50 60.54 54.55 52.41 49.43 49.22 62.17 69.57 69.65 64.05 60.83 59.00 67.29 60.59 52.41 50.39 62.01 56.49 47.91 43.61 61.84 56.52 49.81 49.81 64.84 60.64

Click on individual weather variable above in left-hand column (ie., TEMP, RH, QPF 12HR) to view state forecast maps






NWS 48 Hr. Forecast Maps,

Regional Hourly Observations For HOPKINS County, Kentucky
Issued at 300 AM EDT MON OCT 18 2021
WESTERN AND SOUTH CENTRAL KENTUCKY
  
CITY           SKY/WX    TMP DP  RH WIND       PRES   REMARKS
PADUCAH        CLEAR     44  41  89 CALM      30.20R                  
HENDERSON      CLEAR     45  42  89 CALM      30.20S                  
OWENSBORO      CLEAR     48  42  80 CALM      30.20S                  
HOPKINSVILLE   CLEAR     46  46  99 SW3       30.20S                  
BOWLING GREEN  CLEAR     46  42  86 CALM      30.21S                  
GLASGOW        CLEAR     42  42 100 CALM      30.21S FOG              


Current NOWCAST not available:
Nowcasts are not issued routinely during fair weather. Only when
precipitation or other significant weather is occuring in this county will these
forecasts be issued. Currently, there is no short term forecast in effect.


Fire Weather Forecast For HOPKINS County, KY
Provided by the National Weather Service:

Issued at: Mon Oct 18 03:05:01 EDT 2021

Precip Type           None         None         None         None         
Chance Precip (%)     0            0            0            0            
High Temperature(F)                70-74                     69-73        
Minimum RH(%)                      26-31                     39-44        
Low Temperature(F)    39-43                     41-45                     
Maximum RH(%)         90-95                     91-96                     
Temp (24h Trend)      40 (+1)      73 (+3)      42           72           
RH % (24h Trend)      93 (-4)      29 (-4)      94           42           
20FTWND-AM(MPH)                    Lgt/Var                   Lgt/Var      
20FTWND-PM(MPH)       Lgt/Var      Lgt/Var      Lgt/Var      S 3-7        
Precip Amount         0.00         0.00         0.00         0.00         
Precip Duration                                                           
Precip Begin                                                              
Precip End                                                                
1700'Mix Hgt Temp                  67                        67           
Mixing Hgt(FT-AGL)                 4303                      3868         
Transport Wind (KTS)               SW  3                     S  7         
Transport Wind (M/S)               SW  2                     S  4         
Vent Rate (M/S-M)                  2028                      4254         
Dispersion Index                   Poor to Fair              Fair         
LAL                   1            1            1            1            
Haines Index          5            5            4            4            
Stability(DSI)        N/A          SLGT UNSTBL  N/A          SLGT UNSTBL  

Remarks...None.

.Forecast for days 3 through 7...

.TUESDAY NIGHT...Mostly clear. Lows in the upper 40s. South winds
around 5 mph. 
.WEDNESDAY...Sunny. Highs in the mid 70s. South winds 5 to
10 mph. 
.WEDNESDAY NIGHT...Partly cloudy with a 40 percent chance of rain
showers. Warmer. Lows in the upper 50s. Southwest winds 5 to
10 mph. 
.THURSDAY...Sunny. Highs in the lower 70s. West winds 5 to
15 mph. 
.THURSDAY NIGHT...Mostly clear. Cooler. Lows in the upper 40s.
Northwest winds around 5 mph. 
.FRIDAY...Mostly sunny. Highs in the mid 60s. Northwest winds
5 to 10 mph. 
.FRIDAY NIGHT...Mostly clear. Lows in the lower 40s. North winds
around 5 mph. 
.SATURDAY...Sunny. Highs in the mid 60s. North winds around
5 mph. 
.SATURDAY NIGHT...Mostly clear. Lows in the mid 40s. Southeast
winds around 5 mph. 
.SUNDAY...Mostly sunny with a 20 percent chance of rain showers.
Highs around 70. South winds 5 to 10 mph. 

SPC's Fire Weather Web Tool (Excellent!), SPC's Fire Weather Outlooks, NWS Fire Weather WEB, Fire Danger Class Map,
Keetch-Byram Drought Index, ROMAN Web, Haines Index ,
WFAS's 10-hr Dead Fuel Moist., WFAS's 100-hr Dead Fuel Moist., Probablity of Ignition, Visual blackness Map, Palmer Drought Index, HPC's Rainfall Forecast Maps


Hazardous Weather Outlook For HOPKINS County, Kentucky
301 PM CDT Sun Oct 17 2021

 DAY ONE  This Afternoon and Tonight

Locally dense fog is possible over and near rivers and lakes late
tonight through early Monday morning. 

 DAYS TWO THROUGH SEVEN  Monday through Saturday

No hazardous weather is expected at this time.

 SPOTTER INFORMATION STATEMENT  

Spotter activation will not be needed.

Latest HOPKINS County, Kentucky Watches, Warnings and Advisories.
Additional Drought Info.: UKAWC Drought Page, Kentucky Drought Watch


7-Day Forecast For HOPKINS County, KY

EARLY THIS MORNING
Clear. Lows in the lower 40s. Southwest winds around 5 mph.

TODAY
Sunny. Highs in the lower 70s. Calm winds in the morning becoming southwest around 5 mph in the afternoon.

TONIGHT
Clear. Lows in the lower 40s. Calm winds.

TUESDAY
Partly sunny. Highs in the mid 70s. South winds around 5 mph.

TUESDAY NIGHT
Partly cloudy in the evening then clearing. Lows in the upper 40s. South winds 5 mph.

WEDNESDAY
Mostly sunny. Highs in the upper 70s. South winds 5 to 10 mph.

WEDNESDAY NIGHT
Partly cloudy. A chance of showers in the evening, then a chance of showers and a slight chance of thunderstorms after midnight. Lows in the upper 50s. Chance of precipitation 40 percent.

THURSDAY
Mostly sunny. Highs in the lower 70s.

THURSDAY NIGHT
Partly cloudy. Lows in the upper 40s.

FRIDAY
Partly sunny. Highs in the mid 60s.

FRIDAY NIGHT
Mostly clear. Lows in the lower 40s.

SATURDAY
Mostly sunny. Highs in the mid 60s.

SATURDAY NIGHT
Mostly clear. Lows in the mid 40s.

SUNDAY
Partly sunny with a 20 percent chance of showers. Highs in the upper 60s.

Ag Weather Center, Department of Biosystems & Agricultural Engineering, University of Kentucky